Погода в Больших Борах

Россия / Новгородская область     57°51′01″N   31°05′49″E
темп.,
°C
ветер,
м/с
пор.,
м/с
влажн.,
%
обл.,
%
осадки,
мм/ч
давл.,
гПа
погр.,
м
28 января, чт
чт2800:00−3ю229870 0.1 100433
03:00−3ю119751 0.1 100421
06:00−3ююв129684 0.0 100521
09:00−3ююв129781 0.0 1005122
12:00−1вюв2389100 0.1 1005361
15:000вюв2387100 0.1 1004340
18:00−1в2494100 0.1 1003157
21:00−2в2494100 0.1 1002193
29 января, пт
пт2900:00−3всв2496100 0.0 1000138
03:00−2св2496100 0.4 998202
06:00−2ссв3696100 0.8 994293
09:00−3ссв3796100 2.3 991279
12:00+1юв31098100 2.3 989672
15:000юв399696 2.5 987635
18:00−2вюв388790 0.1 986319
21:00−3в399594 0.2 986450
30 января, сб
сб3000:00−3вюв269791 0.2 986275
03:00−3ю379696 0.8 986419
06:00−4ююз3596100 0.7 985310
09:00−4юз389499 1.1 986458
12:00−3ююз479099 0.3 987639
15:00−3ююз5992100 0.8 988717
18:00−4ююз51091100 0.4 989653
21:00−4ююз51187100 0.4 990572
31 января, вс
вс3100:00−5ююз4109099 0.1 990561
03:00−6ю389499 0.1 991352
06:00−7ю379698 0.1 991262
09:00−6ююз269598 0.2 991251
12:00−5юз249099 0.1 991327
15:00−4зюз258797 0.1 991565
18:00−6зюз379393 0.1 993315
21:00−6юз279590 0.1 994268
1 февраля, пн
пн100:00−5зюз4109296 0.2 995647
03:00−6зюз4109097 0.3 997618
06:00−6зюз4109295 0.0 999500
09:00−7юз399491 0.1 1002307
12:00−6юз488877 0.0 1004362
15:00−4ююз378873 0.0 1005456
18:00−3ю3787100 0.0 1005599
21:00−5ю3895100 0.1 1005328